Location: Kam�li
(14.6864°N, 3.1482°W)
Time: 01:33:36
(UTC+00:00)

Cosmos 1812 Rocket - Pass Details

Date: 29 October 2020
Orbit: 605 x 632 km, 82.5° (Epoch: 02 December)

Event Time Altitude Azimuth Distance (km) Brightness Sun altitude
Rises 18:49:08 0° 192° (SSW) 2,904 7.3 -16.0°
Reaches altitude 10° 18:51:24 10° 196° (SSW) 1,995 6.5 -16.5°
Maximum altitude 18:55:44 56° 275° (W) 739 4.2 -17.5°
Drops below altitude 10° 19:00:03 10° 354° (N) 1,982 6.1 -18.6°
Sets 19:02:18 0° 358° (N) 2,883 6.9 -19.1°
